sat.trackr.live / text

‹ back to catalog

STARLINK-35241

NORAD 65515 · 2025-198Z

PAYLOAD ACTIVE UNKNOWN

§ Identity

Operator
Country
US
Launch date
2025-09-05
Launch site
AFETR
Launch vehicle
Mass (kg)
RCS (m²)

Purposes: comms

External: N2YO · Heavens-Above · Gunter

§ Orbital elements

Epoch: 2026-05-24T18:03:38.267136Z

Period
94.11 min
Inclination
53.1620°
Eccentricity
0.0001054
Mean motion
15.30202985 rev/d
Perigee alt
474.5 km
Apogee alt
475.9 km
Semi-major
6,853.3 km
B*
4.4737e-4
RAAN
277.8243°
Arg perigee
95.8769°
Mean anomaly
264.2352°
Rev number
4,026

§ Raw data

STARLINK-352411 65515U 25198Z   26144.75252624  .00012915  00000+0  44737-3 0  99922 65515  53.1620 277.8243 0001054  95.8769 264.2352 15.30202985 40269

JSON: /api/v1/satellites/65515 · /tle

For live sub-satellite position, see the globe view (requires WebGL).

§ Visibility from observer

Set your observer location to see the next 7 days of passes ≥ 10°. The values pass through the URL so the page stays shareable.

No JS? Fill the form by hand. The geolocation button needs JavaScript.